�������l�o���
Date,Time,MP-1(��Sv/h),MP-2(��Sv/h),MP-3(��Sv/h),MP-4(��Sv/h),MP-5(��Sv/h),MP-6(��Sv/h),MP-7(��Sv/h),MP-8(��Sv/h),����,����(m/s),���J
2021/06/19,00:00,0.645,0.961,0.604,1.173,0.842,0.377,0.660,0.612,��,2.3,��
2021/06/19,00:10,0.643,0.963,0.601,1.172,0.843,0.377,0.658,0.614,��,2.0,��
2021/06/19,00:20,0.645,0.962,0.603,1.173,0.845,0.377,0.659,0.614,��,2.6,��
2021/06/19,00:30,0.644,0.960,0.604,1.171,0.843,0.377,0.660,0.613,��,3.1,��
2021/06/19,00:40,0.646,0.962,0.605,1.172,0.844,0.378,0.659,0.612,��,2.6,��
2021/06/19,00:50,0.644,0.963,0.603,1.175,0.843,0.377,0.660,0.612,��,2.3,��
2021/06/19,01:00,0.644,0.960,0.604,1.175,0.844,0.378,0.659,0.614,��,1.7,��
2021/06/19,01:10,0.645,0.963,0.604,1.173,0.842,0.379,0.658,0.612,��,2.0,��
2021/06/19,01:20,0.644,0.960,0.604,1.175,0.841,0.378,0.660,0.613,��쓌,2.3,��
2021/06/19,01:30,0.645,0.961,0.604,1.173,0.843,0.378,0.659,0.614,��,1.9,��
2021/06/19,01:40,0.645,0.960,0.604,1.173,0.843,0.378,0.660,0.614,��,2.3,��
2021/06/19,01:50,0.644,0.961,0.605,1.175,0.842,0.378,0.659,0.613,��쓌,2.0,��
2021/06/19,02:00,0.647,0.960,0.605,1.173,0.843,0.379,0.659,0.614,��쓌,1.7,��
2021/06/19,02:10,0.648,0.961,0.604,1.172,0.843,0.378,0.658,0.613,�쓌,1.4,��
2021/06/19,02:20,0.645,0.961,0.607,1.173,0.844,0.378,0.658,0.613,��쓌,1.5,��
2021/06/19,02:30,0.646,0.962,0.605,1.175,0.844,0.379,0.659,0.614,��쓌,2.6,��
2021/06/19,02:40,0.644,0.959,0.604,1.174,0.844,0.378,0.659,0.614,��쓌,3.6,��
2021/06/19,02:50,0.645,0.961,0.604,1.173,0.843,0.379,0.658,0.614,��쓌,3.7,��
2021/06/19,03:00,0.646,0.963,0.605,1.173,0.842,0.379,0.659,0.616,��쓌,3.9,�L
2021/06/19,03:10,0.646,0.961,0.604,1.175,0.843,0.379,0.660,0.615,��,4.2,��
2021/06/19,03:20,0.646,0.962,0.605,1.173,0.842,0.378,0.661,0.613,��,4.5,�L
2021/06/19,03:30,0.646,0.961,0.604,1.172,0.842,0.378,0.659,0.614,��,4.2,�L
2021/06/19,03:40,0.647,0.959,0.605,1.174,0.844,0.378,0.660,0.614,��,4.8,�L
2021/06/19,03:50,0.646,0.961,0.605,1.176,0.842,0.379,0.659,0.614,��,5.1,��
2021/06/19,04:00,0.644,0.961,0.607,1.174,0.842,0.378,0.659,0.612,��,5.5,��
2021/06/19,04:10,0.646,0.960,0.604,1.173,0.842,0.377,0.658,0.615,��,5.6,�L
2021/06/19,04:20,0.645,0.962,0.604,1.174,0.840,0.379,0.658,0.614,��쓌,5.7,�L
2021/06/19,04:30,0.646,0.961,0.605,1.174,0.842,0.378,0.659,0.612,��,5.4,��
2021/06/19,04:40,0.645,0.963,0.604,1.171,0.841,0.378,0.658,0.613,��,4.8,��
2021/06/19,04:50,0.644,0.962,0.604,1.175,0.843,0.379,0.660,0.613,��,4.3,�L
2021/06/19,05:00,0.646,0.963,0.605,1.173,0.844,0.379,0.661,0.613,��쐼,3.1,�L
2021/06/19,05:10,0.646,0.959,0.606,1.175,0.844,0.380,0.660,0.615,��,2.6,�L
2021/06/19,05:20,0.644,0.961,0.604,1.173,0.842,0.379,0.660,0.614,��,3.6,�L
2021/06/19,05:30,0.646,0.961,0.607,1.173,0.842,0.377,0.660,0.614,��,3.6,��
2021/06/19,05:40,0.646,0.961,0.604,1.175,0.842,0.378,0.660,0.612,��,2.6,�L
2021/06/19,05:50,0.646,0.960,0.607,1.174,0.845,0.379,0.660,0.613,��,1.7,�L
2021/06/19,06:00,0.647,0.960,0.606,1.174,0.843,0.381,0.661,0.614,��,1.7,��
2021/06/19,06:10,0.648,0.959,0.605,1.174,0.845,0.380,0.659,0.615,��,2.0,�L
2021/06/19,06:20,0.646,0.960,0.606,1.173,0.842,0.379,0.659,0.614,��쓌,1.5,�L
2021/06/19,06:30,0.646,0.960,0.605,1.175,0.844,0.379,0.660,0.614,�쓌,0.8,�L
2021/06/19,06:40,0.647,0.961,0.606,1.172,0.844,0.381,0.659,0.614,�쐼,0.6,�L
2021/06/19,06:50,0.649,0.961,0.607,1.173,0.843,0.379,0.659,0.613,-,CALM,�L
2021/06/19,07:00,0.648,0.962,0.606,1.174,0.844,0.381,0.660,0.613,��쓌,1.4,�L
2021/06/19,07:10,0.648,0.962,0.606,1.174,0.844,0.380,0.660,0.614,��쐼,1.9,�L
2021/06/19,07:20,0.647,0.960,0.608,1.177,0.846,0.380,0.658,0.614,��,2.3,�L
2021/06/19,07:30,0.647,0.958,0.605,1.173,0.842,0.379,0.660,0.616,��,2.3,�L
2021/06/19,07:40,0.647,0.959,0.606,1.176,0.844,0.378,0.659,0.614,��,1.7,�L
2021/06/19,07:50,0.647,0.959,0.607,1.174,0.841,0.379,0.657,0.614,��쓌,2.0,�L
2021/06/19,08:00,0.646,0.962,0.606,1.175,0.841,0.378,0.656,0.614,��,1.5,�L
2021/06/19,08:10,0.644,0.958,0.606,1.174,0.840,0.380,0.658,0.613,�쓌,0.6,�L
2021/06/19,08:20,0.644,0.955,0.606,1.173,0.839,0.379,0.658,0.613,��,0.9,�L
2021/06/19,08:30,0.642,0.954,0.605,1.174,0.838,0.379,0.656,0.612,�쓌,0.9,�L
2021/06/19,08:40,0.642,0.955,0.604,1.171,0.836,0.378,0.657,0.612,�쓌,1.4,�L
2021/06/19,08:50,0.641,0.949,0.603,1.170,0.834,0.377,0.656,0.609,��쓌,1.4,�L
2021/06/19,09:00,0.640,0.948,0.604,1.170,0.829,0.376,0.655,0.611,�쓌,1.7,�L
2021/06/19,09:10,0.639,0.945,0.601,1.167,0.829,0.376,0.656,0.610,��쓌,2.5,�L
2021/06/19,09:20,0.638,0.943,0.600,1.166,0.828,0.378,0.655,0.609,��쓌,3.2,�L
2021/06/19,09:30,0.638,0.940,0.599,1.166,0.825,0.377,0.654,0.610,��쓌,4.2,�L
2021/06/19,09:40,0.636,0.939,0.599,1.163,0.825,0.378,0.653,0.610,��쓌,3.6,�L
2021/06/19,09:50,0.638,0.940,0.601,1.164,0.824,0.376,0.656,0.610,��쓌,6.2,�L
2021/06/19,10:00,0.636,0.938,0.598,1.161,0.826,0.377,0.652,0.607,��,5.5,�L
2021/06/19,10:10,0.634,0.938,0.600,1.161,0.824,0.376,0.655,0.608,��,5.3,�L
2021/06/19,10:20,0.636,0.935,0.597,1.162,0.822,0.376,0.653,0.608,��,5.8,�L
2021/06/19,10:30,0.635,0.936,0.596,1.160,0.820,0.375,0.651,0.610,��,4.5,�L
2021/06/19,10:40,0.634,0.934,0.596,1.158,0.821,0.376,0.652,0.607,��,3.8,�L
2021/06/19,10:50,0.634,0.934,0.598,1.159,0.823,0.375,0.653,0.606,��,4.3,�L
2021/06/19,11:00,0.634,0.933,0.596,1.161,0.821,0.375,0.654,0.607,��,6.3,�L
2021/06/19,11:10,0.631,0.934,0.595,1.157,0.821,0.374,0.653,0.606,��,6.8,��
2021/06/19,11:20,0.634,0.935,0.595,1.159,0.821,0.375,0.651,0.607,��,7.6,�L
2021/06/19,11:30,0.633,0.938,0.592,1.158,0.821,0.374,0.653,0.606,��,7.9,�L
2021/06/19,11:40,0.634,0.938,0.593,1.156,0.819,0.372,0.652,0.606,��,8.7,�L
2021/06/19,11:50,0.635,0.938,0.596,1.155,0.822,0.373,0.653,0.607,��,6.7,�L
2021/06/19,12:00,0.633,0.938,0.594,1.156,0.821,0.373,0.653,0.607,��,6.7,�L
2021/06/19,12:10,0.633,0.937,0.596,1.155,0.820,0.373,0.653,0.607,��,6.8,�L
2021/06/19,12:20,0.634,0.936,0.594,1.154,0.822,0.375,0.652,0.605,��쓌,8.3,�L
2021/06/19,12:30,0.632,0.936,0.593,1.158,0.820,0.373,0.653,0.605,��쓌,8.2,�L
2021/06/19,12:40,0.632,0.935,0.594,1.157,0.818,0.374,0.652,0.606,��,8.4,�L
2021/06/19,12:50,0.633,0.935,0.594,1.160,0.820,0.374,0.652,0.607,��쓌,9.3,�L
2021/06/19,13:00,0.631,0.935,0.594,1.156,0.818,0.373,0.651,0.605,��쓌,9.2,�L
2021/06/19,13:10,0.630,0.933,0.593,1.156,0.818,0.373,0.651,0.605,��,8.8,�L
2021/06/19,13:20,0.631,0.932,0.591,1.156,0.819,0.373,0.651,0.605,��,8.3,�L
2021/06/19,13:30,0.630,0.929,0.593,1.157,0.817,0.373,0.653,0.606,��쓌,8.7,�L
2021/06/19,13:40,0.629,0.930,0.591,1.155,0.819,0.374,0.649,0.605,��,8.9,�L
2021/06/19,13:50,0.630,0.929,0.592,1.154,0.813,0.373,0.651,0.606,��,7.4,�L
2021/06/19,14:00,0.628,0.927,0.592,1.154,0.816,0.374,0.650,0.604,��,7.8,�L
2021/06/19,14:10,0.629,0.928,0.592,1.152,0.813,0.374,0.651,0.604,��,8.4,�L
2021/06/19,14:20,0.628,0.928,0.589,1.154,0.813,0.372,0.648,0.603,��,8.2,�L
2021/06/19,14:30,0.627,0.926,0.590,1.154,0.811,0.372,0.649,0.603,��,6.3,�L
2021/06/19,14:40,0.626,0.922,0.588,1.150,0.810,0.371,0.649,0.603,��,8.4,�L
2021/06/19,14:50,0.625,0.922,0.589,1.147,0.806,0.371,0.647,0.601,��쓌,8.1,�L
2021/06/19,15:00,0.623,0.920,0.587,1.147,0.805,0.372,0.648,0.602,��,8.4,�L
2021/06/19,15:10,0.624,0.919,0.587,1.146,0.806,0.372,0.646,0.603,��,8.5,�L
2021/06/19,15:20,0.624,0.920,0.588,1.143,0.805,0.373,0.646,0.602,��,7.4,�L
2021/06/19,15:30,0.623,0.921,0.589,1.144,0.807,0.371,0.645,0.601,��,6.9,�L
2021/06/19,15:40,0.622,0.919,0.586,1.144,0.802,0.370,0.645,0.600,��,6.4,�L
2021/06/19,15:50,0.624,0.920,0.587,1.142,0.803,0.370,0.647,0.602,��,6.6,�L
2021/06/19,16:00,0.622,0.917,0.588,1.141,0.803,0.371,0.645,0.603,��쓌,7.6,�L
2021/06/19,16:10,0.620,0.920,0.587,1.140,0.803,0.371,0.645,0.600,��,7.7,�L
2021/06/19,16:20,0.621,0.919,0.586,1.140,0.802,0.370,0.644,0.601,��,7.0,�L
2021/06/19,16:30,0.620,0.917,0.587,1.138,0.805,0.370,0.644,0.601,��,7.2,�L
2021/06/19,16:40,0.621,0.918,0.586,1.139,0.802,0.370,0.646,0.601,��,8.0,�L
2021/06/19,16:50,0.619,0.916,0.585,1.140,0.802,0.371,0.644,0.600,��,8.5,�L
2021/06/19,17:00,0.617,0.915,0.586,1.137,0.800,0.369,0.644,0.600,��,8.2,�L
2021/06/19,17:10,0.618,0.912,0.584,1.137,0.800,0.368,0.644,0.599,��쓌,7.4,�L
2021/06/19,17:20,0.618,0.912,0.583,1.134,0.797,0.368,0.643,0.599,��,7.3,�L
2021/06/19,17:30,0.618,0.912,0.582,1.134,0.800,0.367,0.644,0.598,��,6.1,�L
2021/06/19,17:40,0.616,0.911,0.583,1.133,0.798,0.368,0.643,0.600,��,7.3,�L
2021/06/19,17:50,0.617,0.913,0.583,1.133,0.799,0.368,0.643,0.598,��,6.9,�L
2021/06/19,18:00,0.616,0.911,0.583,1.131,0.800,0.368,0.642,0.598,��,6.8,�L
2021/06/19,18:10,0.615,0.911,0.582,1.133,0.800,0.368,0.642,0.598,��,6.9,�L
2021/06/19,18:20,0.615,0.913,0.581,1.132,0.797,0.368,0.641,0.598,��쓌,8.1,�L
2021/06/19,18:30,0.615,0.913,0.583,1.132,0.796,0.369,0.643,0.598,��쓌,8.6,�L
2021/06/19,18:40,0.616,0.912,0.584,1.131,0.798,0.367,0.644,0.598,��,9.2,�L
2021/06/19,18:50,0.618,0.912,0.581,1.132,0.799,0.368,0.641,0.598,��쓌,8.2,�L
2021/06/19,19:00,0.618,0.912,0.584,1.131,0.797,0.369,0.643,0.598,��쓌,9.2,�L
2021/06/19,19:10,0.617,0.911,0.583,1.130,0.798,0.370,0.643,0.599,��쓌,9.8,�L
2021/06/19,19:20,0.615,0.911,0.584,1.131,0.798,0.369,0.643,0.599,��쓌,8.4,�L
2021/06/19,19:30,0.617,0.912,0.584,1.130,0.799,0.368,0.643,0.600,��,6.8,�L
2021/06/19,19:40,0.616,0.911,0.585,1.128,0.796,0.368,0.642,0.600,��,6.7,�L
2021/06/19,19:50,0.617,0.913,0.584,1.131,0.797,0.368,0.643,0.600,��,5.5,�L
2021/06/19,20:00,0.619,0.912,0.585,1.129,0.796,0.368,0.645,0.599,��,6.1,�L
2021/06/19,20:10,0.617,0.913,0.585,1.129,0.798,0.368,0.642,0.601,��,8.0,�L
2021/06/19,20:20,0.618,0.913,0.583,1.132,0.798,0.369,0.643,0.600,��쐼,7.8,�L
2021/06/19,20:30,0.618,0.913,0.583,1.133,0.798,0.370,0.643,0.600,��쐼,8.5,��
2021/06/19,20:40,0.618,0.914,0.586,1.129,0.798,0.368,0.644,0.600,��쐼,8.1,��
2021/06/19,20:50,0.617,0.913,0.587,1.128,0.796,0.369,0.644,0.601,��쐼,8.6,��
2021/06/19,21:00,0.618,0.917,0.585,1.131,0.800,0.368,0.643,0.600,��쐼,6.7,��
2021/06/19,21:10,0.618,0.916,0.585,1.132,0.800,0.368,0.643,0.602,��쐼,8.4,��
2021/06/19,21:20,0.615,0.916,0.585,1.129,0.800,0.369,0.643,0.601,��쐼,6.8,��
2021/06/19,21:30,0.618,0.917,0.585,1.132,0.799,0.368,0.644,0.601,��,5.5,��
2021/06/19,21:40,0.617,0.917,0.585,1.132,0.800,0.369,0.645,0.603,��,6.9,��
2021/06/19,21:50,0.616,0.916,0.585,1.132,0.802,0.368,0.644,0.602,��,6.5,��
2021/06/19,22:00,0.616,0.914,0.585,1.132,0.799,0.368,0.646,0.602,��,7.5,��
2021/06/19,22:10,0.618,0.914,0.585,1.129,0.800,0.370,0.644,0.601,��쓌,9.0,��
2021/06/19,22:20,0.617,0.917,0.586,1.132,0.803,0.368,0.645,0.601,��,8.5,��
2021/06/19,22:30,0.620,0.914,0.586,1.131,0.802,0.368,0.644,0.603,��,9.8,��
2021/06/19,22:40,0.620,0.914,0.589,1.134,0.801,0.369,0.645,0.601,��,9.0,�L
2021/06/19,22:50,0.619,0.915,0.586,1.132,0.801,0.368,0.646,0.602,��,10.0,�L
2021/06/19,23:00,0.619,0.915,0.588,1.131,0.801,0.370,0.644,0.603,��,9.4,��
2021/06/19,23:10,0.619,0.916,0.588,1.131,0.800,0.368,0.645,0.603,��,8.4,��
2021/06/19,23:20,0.618,0.917,0.588,1.132,0.801,0.369,0.645,0.604,��,8.2,�L
2021/06/19,23:30,0.619,0.918,0.587,1.130,0.801,0.369,0.646,0.603,��,7.5,��
2021/06/19,23:40,0.619,0.918,0.586,1.132,0.802,0.369,0.647,0.603,��,5.8,��
2021/06/19,23:50,0.620,0.919,0.588,1.133,0.803,0.368,0.647,0.602,��,7.0,��
